Location: G�migny
(47.9646°N, 1.6950°E)
Time: 00:30:29
(UTC+00:00)

YAOGAN 6 - Pass Details

Date: 27 January 2020
Orbit: 465 x 506 km, 97.0° (Epoch: 20 February)

Event Time Altitude Azimuth Distance (km) Brightness Sun altitude
Rises 18:38:12 0° 197° (SSW) 2,584 6.6 -18.9°
Reaches altitude 10° 18:40:36 10° 212° (SSW) 1,700 5.8 -19.3°
Maximum altitude 18:43:33 23° 266° (W) 1,103 5.2 -19.8°
Drops below altitude 10° 18:46:30 10° 320° (NW) 1,696 5.7 -20.3°
Sets 18:48:54 0° 336° (NNW) 2,576 6.5 -20.7°
